Kuantan, Malaysia

8:01 AM +08 on October 15, 2019 (GMT +0800)
Kuantan

Weather History for WMKD - August, 2019

Change the Weather History Date:

Monday, August 26, 2019

  Actual Average (WUND) Record (WUND)
Temperature  
Mean Temperature 82 °F -  
Max Temperature 90 °F 90 °F - (-1)
Min Temperature 73 °F 72 °F - (-1)
Cooling Degree Days 16    
Growing Degree Days 32 (Base 50)    
Moisture  
Dew Point 75 °F    
Average Humidity 84    
Maximum Humidity 95    
Minimum Humidity 62    
Precipitation  
Precipitation 0.79 in 0.30 in - ()
Sea Level Pressure  
Sea Level Pressure 29.83 in    
Wind  
Wind Speed 2 mph ()    
Max Wind Speed 6 mph    
Max Gust Speed -    
Visibility 4.4 miles    
Events Rain , Thunderstorm    
Averages and records for this station are not official NWS values.
T = Trace of Precipitation, MM = Missing Value Source: Averaged Metar Reports

Daily Weather History Graph

Daily Weather History Graph

Search for Another Location

Airport or City:

Astronomy

Aug. 26, 2019 Rise Set
Actual Time 7:02 AM +08 7:15 PM +08
Civil Twilight 6:41 AM +08 7:36 PM +08
Nautical Twilight 6:17 AM +08 8:00 PM +08
Astronomical Twilight 5:52 AM +08 8:25 PM +08
Moon 2:41 AM +08 (8/26) 3:21 PM +08 (8/26)
Length of Visible Light 12h 54m
Length of Day
12h 12m
Waning Crescent, 24% of the Moon is Illuminated
Aug 26
Waning Crescent
Aug 30
New
Sep 6
First Quarter
Sep 14
Full
Sep 22
Last Quarter

Hourly Weather History & Observations

Time (+08) Temp. Heat Index Dew Point Humidity Pressure Visibility Wind Dir Wind Speed Gust Speed Precip Events Conditions
12:00 AM 78.8 °F - 75.2 °F 89% 29.89 in 2.5 mi Variable 3.5 mph - N/A Rain , Thunderstorm Thunderstorms and Rain
1:00 AM 75.2 °F - 73.4 °F 94% 29.89 in 2.5 mi Variable 3.5 mph - N/A Rain , Thunderstorm Thunderstorms and Rain
2:00 AM 74 °F - 73 °F 95% 29.87 in 2 mi NW 4.6 mph - - Rain , Thunderstorm Thunderstorms and Rain
2:00 AM 75.2 °F - 73.4 °F 94% 29.86 in 2.5 mi NW 4.6 mph - N/A Rain , Thunderstorm Light Thunderstorms and Rain
3:00 AM 77.0 °F - 73.4 °F 89% 29.86 in 2.5 mi Variable 2.3 mph - N/A Rain , Thunderstorm Light Thunderstorms and Rain
5:00 AM 75 °F - 72 °F 87% 29.81 in 4 mi NW 1.2 mph - - Rain Light Rain
5:00 AM 75.2 °F - 71.6 °F 89% 29.80 in 4.3 mi Variable 1.2 mph - N/A Rain Light Rain
7:00 AM 75.2 °F - 73.4 °F 94% 29.83 in 4.3 mi Calm Calm - N/A   Mostly Cloudy
8:00 AM 75 °F - 72 °F 89% 29.86 in 5 mi Calm Calm - -   Haze
8:00 AM 75.2 °F - 73.4 °F 94% 29.86 in 5.0 mi Calm Calm - N/A   Mostly Cloudy
9:00 AM 77.0 °F - 73.4 °F 89% 29.89 in 3.7 mi Variable 1.2 mph - N/A   Mostly Cloudy
10:00 AM 78.8 °F - 75.2 °F 89% 29.89 in 5.0 mi Variable 1.2 mph - N/A   Mostly Cloudy
11:00 AM 84 °F - 76 °F 72% 29.88 in 5 mi Calm Calm - -   Haze
11:00 AM 84.2 °F 94.1 °F 77.0 °F 79% 29.86 in 5.0 mi Calm Calm - N/A   Mostly Cloudy
12:00 PM 87.8 °F 102.5 °F 78.8 °F 75% 29.86 in 6.2 mi Variable 2.3 mph - N/A   Mostly Cloudy
1:00 PM 89.6 °F 104.7 °F 78.8 °F 70% 29.83 in 6.2 mi Variable 3.5 mph - N/A   Mostly Cloudy
2:00 PM 90 °F - 79 °F 62% 29.80 in 6 mi SE 2.3 mph - -   Haze
2:00 PM 89.6 °F 104.7 °F 78.8 °F 70% 29.80 in 6.2 mi Variable 2.3 mph - N/A   Mostly Cloudy
4:00 PM 89.6 °F 104.7 °F 78.8 °F 70% 29.74 in 6.2 mi East 5.8 mph - N/A   Mostly Cloudy
5:00 PM 88 °F - 80 °F 71% 29.75 in 7 mi East 5.8 mph - -   Haze
5:00 PM 87.8 °F 104.9 °F 80.6 °F 79% 29.74 in 6.2 mi Variable 5.8 mph - N/A   Mostly Cloudy
6:00 PM 87.8 °F 102.5 °F 78.8 °F 75% 29.74 in 5.6 mi Variable 4.6 mph - N/A   Mostly Cloudy
7:00 PM 86.0 °F 99.3 °F 78.8 °F 79% 29.80 in 5.6 mi ENE 5.8 mph - N/A   Mostly Cloudy
8:00 PM 74 °F - 71 °F 86% 29.82 in 1 mi SE 3.5 mph - - Rain , Thunderstorm Thunderstorms and Rain
8:00 PM 73.4 °F - 71.6 °F 94% 29.80 in 0.6 mi Variable 3.5 mph - N/A Rain , Thunderstorm Thunderstorms and Rain
9:00 PM 73.4 °F - 71.6 °F 94% 29.83 in 3.7 mi Calm Calm - N/A Rain , Thunderstorm Light Thunderstorms and Rain
10:00 PM 75.2 °F - 71.6 °F 89% 29.86 in 4.3 mi Calm Calm - N/A Rain , Thunderstorm Light Thunderstorms and Rain
11:00 PM 75 °F - 73 °F 92% 29.87 in 5 mi West 2.3 mph - - Rain Light Rain
11:00 PM 75.2 °F - 73.4 °F 94% 29.86 in 5.0 mi Variable 2.3 mph - N/A Rain Light Rain